Terug naar catalogus

OPS 3811

ActiefNavigatieGEO
NORAD 5204·PAYLOAD·🇺🇸 United States

Gelanceerd May 5, 1971 vanaf Cape Canaveral Space Force Station

Loading…

TLE

VersSource: Space-Track

Epoch: Sep 14, 2026, 14:14 UTC

1 05204U 71039A   26257.59338775 -.00000027  00000-0  00000-0 0  9990
2 05204   0.5599  60.1208 0021449 227.1218  11.9899  0.98159866207100

Volg OPS 3811 in realtime met AllMySat

Download on the App Store